Overview Statistics Trail Chart Weather Telemetry Raw packets
 

This is the latest recevied weather packets stored in our database for station/object KB4MLW-13. If no packets are shown the sender has not sent any weather packets the latest 10 day(s).

<< 137 138 139 140 141 142 143 >>
Time Temp. Humidity Pressure Rain* Wind** Luminosity Snow
1788139378 27.22° C 83% 1000.4 hPa 0 mm - - -
1788139318 27.22° C 83% 1000.4 hPa 0 mm - - -
1788139258 27.22° C 83% 1000.3 hPa 0 mm - - -
1788139198 27.78° C 83% 1000.4 hPa 0 mm - - -
1788139138 27.78° C 83% 1000.1 hPa 0 mm - - -
1788139078 27.78° C 83% 1000.2 hPa 0 mm - - -
1788138989 27.78° C 83% 1000.2 hPa 0 mm - - -
1788138899 27.78° C 83% 1000.3 hPa 0 mm - - -
1788138808 27.78° C 81% 1000.3 hPa 0 mm - - -
1788138721 27.78° C 81% 1000.2 hPa 0 mm - - -
1788138658 27.78° C 81% 1000.2 hPa 0 mm - - -
1788138598 27.78° C 80% 1000.2 hPa 0 mm - - -
1788138538 27.78° C 80% 1000.2 hPa 0 mm - - -
1788138489 27.78° C 80% 1000.4 hPa 0 mm - - -
1788138418 27.78° C 80% 1000.3 hPa 0 mm - - -
1788138358 27.78° C 80% 1000.3 hPa 0 mm - - -
1788138269 27.78° C 83% 1000.2 hPa 0 mm - - -
1788138179 27.78° C 81% 1000.2 hPa 0 mm - - -
1788138089 27.78° C 82% 1000.4 hPa 0 mm - - -
1788138028 27.78° C 82% 1000.1 hPa 0 mm - - -
1788137939 27.78° C 81% 1000.3 hPa 0 mm - - -
1788137878 27.78° C 81% 1000.3 hPa 0 mm - - -
1788137818 27.78° C 82% 1000.2 hPa 0 mm - - -
1788137758 27.78° C 81% 1000.2 hPa 0 mm - - -
1788137705 27.78° C 83% 1000.2 hPa 0 mm - - -

* Rain latest hour (hover to see other rain measurements)
** Current wind speed in m/s (hover to see current wind gust speed)